Location: Seattle
(47.6064°N, 122.3308°W)
Time: 14:16:34
(UTC-08:00)

SR - Pass Details

Date: 27 November 2020
Orbit: 575 x 880 km, 66.7° (Epoch: 23 January)

Event Time Altitude Azimuth Distance (km) Brightness Sun altitude
Rises 18:05:28 0° 183° (S) 2,790 ? -16.9°
Reaches altitude 10° 18:07:51 10° 171° (S) 1,916 ? -17.3°
Enters shadow 18:11:15 28° 119° (ESE) 1,153 ? -17.9°
